| time (UTC) | temp F | wind direction | speed MPH | gust MPH | rain 1hr in | rain 24hr in | rain mn in | humidity % | barometer mb |
| 20260905222236 | 72 | 216 | 4.0 | 10.0 | 0.00 | 0.00 | 0.00 | 63 | 997.1 |
| 20260905221735 | 71 | 210 | 4.0 | 8.0 | 0.00 | 0.00 | 0.00 | 64 | 997.1 |
| 20260905221235 | 71 | 241 | 4.0 | 9.0 | 0.00 | 0.00 | 0.00 | 63 | 997.1 |
| 20260905220737 | 72 | 180 | 4.0 | 9.0 | 0.00 | 0.00 | 0.00 | 65 | 997.2 |
| 20260905220235 | 72 | 188 | 4.0 | 11.0 | 0.00 | 0.00 | 0.00 | 65 | 997.2 |
| 20260905215737 | 71 | 238 | 4.0 | 11.0 | 0.00 | 0.00 | 0.00 | 66 | 997.3 |
| 20260905215236 | 71 | 209 | 5.0 | 10.0 | 0.00 | 0.00 | 0.00 | 67 | 997.4 |
| 20260905214729 | 71 | 170 | 5.0 | 10.0 | 0.00 | 0.00 | 0.00 | 65 | 997.4 |
| 20260905214224 | 71 | 214 | 4.0 | 8.0 | 0.00 | 0.00 | 0.00 | 68 | 997.4 |
| 20260905213718 | 71 | 205 | 4.0 | 9.0 | 0.00 | 0.00 | 0.00 | 66 | 997.4 |
| 20260905213212 | 71 | 187 | 4.0 | 9.0 | 0.00 | 0.00 | 0.00 | 65 | 997.5 |
| 20260905212200 | 71 | 188 | 4.0 | 9.0 | 0.00 | 0.00 | 0.00 | 65 | 997.5 |
| 20260905211653 | 71 | 149 | 4.0 | 8.0 | 0.00 | 0.00 | 0.00 | 63 | 997.5 |
| 20260905211147 | 72 | 192 | 3.0 | 7.0 | 0.00 | 0.00 | 0.00 | 62 | 997.6 |
| 20260905210642 | 72 | 246 | 3.0 | 8.0 | 0.00 | 0.00 | 0.00 | 64 | 997.7 |
| 20260905210136 | 72 | 229 | 3.0 | 9.0 | 0.00 | 0.00 | 0.00 | 64 | 997.7 |
| 20260905205629 | 72 | 192 | 3.0 | 9.0 | 0.00 | 0.00 | 0.00 | 62 | 997.8 |
| 20260905205124 | 72 | 254 | 4.0 | 8.0 | 0.00 | 0.00 | 0.00 | 64 | 997.6 |
| 20260905204112 | 72 | 207 | 3.0 | 7.0 | 0.00 | 0.00 | 0.00 | 63 | 997.6 |
| 20260905203606 | 72 | 207 | 3.0 | 8.0 | 0.00 | 0.00 | 0.00 | 63 | 997.5 |
| 20260905203100 | 71 | 248 | 3.0 | 8.0 | 0.00 | 0.00 | 0.00 | 64 | 997.5 |
| 20260905202554 | 71 | 196 | 3.0 | 7.0 | 0.00 | 0.00 | 0.00 | 64 | 997.5 |
| 20260905202048 | 71 | 277 | 3.0 | 7.0 | 0.00 | 0.00 | 0.00 | 65 | 997.5 |
| 20260905201035 | 70 | 242 | 4.0 | 8.0 | 0.00 | 0.00 | 0.00 | 66 | 997.6 |
| 20260905200530 | 70 | 224 | 3.0 | 9.0 | 0.00 | 0.00 | 0.00 | 66 | 997.6 |
| 20260905200024 | 70 | 193 | 3.0 | 9.0 | 0.00 | 0.00 | 0.00 | 67 | 997.7 |
| 20260905195518 | 70 | 231 | 3.0 | 9.0 | 0.00 | 0.00 | 0.00 | 68 | 997.7 |
| 20260905195011 | 70 | 271 | 4.0 | 10.0 | 0.00 | 0.00 | 0.00 | 69 | 997.8 |
| 20260905194506 | 70 | 205 | 4.0 | 10.0 | 0.00 | 0.00 | 0.00 | 69 | 997.9 |
| 20260905193959 | 71 | 186 | 3.0 | 8.0 | 0.00 | 0.00 | 0.00 | 69 | 997.9 |
| 20260905193454 | 71 | 221 | 3.0 | 6.0 | 0.00 | 0.00 | 0.00 | 68 | 997.7 |
| 20260905192948 | 71 | 248 | 3.0 | 6.0 | 0.00 | 0.00 | 0.00 | 68 | 997.7 |
| 20260905192442 | 70 | 209 | 3.0 | 7.0 | 0.00 | 0.00 | 0.00 | 66 | 997.8 |
| 20260905191430 | 70 | 281 | 4.0 | 9.0 | 0.00 | 0.00 | 0.00 | 65 | 997.8 |
| 20260905190924 | 70 | 273 | 4.0 | 9.0 | 0.00 | 0.00 | 0.00 | 64 | 997.9 |
| 20260905190417 | 70 | 219 | 3.0 | 7.0 | 0.00 | 0.00 | 0.00 | 66 | 997.9 |
| 20260905185912 | 70 | 231 | 3.0 | 7.0 | 0.00 | 0.00 | 0.00 | 66 | 997.8 |
| 20260905185406 | 70 | 228 | 3.0 | 7.0 | 0.00 | 0.00 | 0.00 | 67 | 997.7 |
| 20260905184859 | 70 | 234 | 2.0 | 7.0 | 0.00 | 0.00 | 0.00 | 68 | 997.7 |
| 20260905184354 | 70 | 286 | 2.0 | 7.0 | 0.00 | 0.00 | 0.00 | 68 | 997.7 |
| 20260905183848 | 69 | 238 | 3.0 | 7.0 | 0.00 | 0.00 | 0.00 | 68 | 997.8 |
| 20260905183342 | 69 | 236 | 3.0 | 7.0 | 0.00 | 0.00 | 0.00 | 67 | 997.8 |
| 20260905182835 | 69 | 246 | 2.0 | 5.0 | 0.00 | 0.00 | 0.00 | 69 | 997.9 |
| 20260905182330 | 69 | 259 | 2.0 | 5.0 | 0.00 | 0.00 | 0.00 | 70 | 997.8 |
| 20260905181317 | 68 | 248 | 3.0 | 8.0 | 0.00 | 0.00 | 0.00 | 71 | 997.9 |
| 20260905180306 | 67 | 193 | 2.0 | 6.0 | 0.00 | 0.00 | 0.00 | 73 | 997.8 |
| 20260905175800 | 67 | 253 | 2.0 | 4.0 | 0.00 | 0.00 | 0.00 | 74 | 997.8 |
| 20260905175253 | 66 | 185 | 2.0 | 5.0 | 0.00 | 0.00 | 0.00 | 75 | 997.8 |
| 20260905174242 | 65 | 234 | 3.0 | 7.0 | 0.00 | 0.00 | 0.00 | 77 | 997.7 |
| 20260905173736 | 65 | 279 | 2.0 | 7.0 | 0.00 | 0.00 | 0.00 | 77 | 997.7 |
| 20260905173230 | 65 | 254 | 2.0 | 6.0 | 0.00 | 0.00 | 0.00 | 78 | 997.7 |
| 20260905172802 | 64 | 248 | 2.0 | 5.0 | 0.00 | 0.00 | 0.00 | 78 | 997.7 |
| 20260905172702 | 64 | 240 | 2.0 | 6.0 | 0.00 | 0.00 | 0.00 | 78 | 997.6 |
| 20260905172401 | 63 | 261 | 2.0 | 6.0 | 0.00 | 0.00 | 0.00 | 80 | 997.5 |
| 20260905170700 | 63 | 250 | 2.0 | 6.0 | 0.00 | 0.00 | 0.00 | 80 | 997.5 |
| 20260905170154 | 63 | 249 | 1.0 | 5.0 | 0.00 | 0.00 | 0.00 | 81 | 997.5 |
| 20260905165648 | 62 | 197 | 1.0 | 5.0 | 0.00 | 0.00 | 0.00 | 82 | 997.4 |
| 20260905163625 | 61 | 194 | 3.0 | 6.0 | 0.00 | 0.00 | 0.00 | 83 | 997.3 |
| 20260905163118 | 61 | 250 | 3.0 | 6.0 | 0.00 | 0.00 | 0.00 | 83 | 997.3 |
| 20260905162612 | 60 | 185 | 3.0 | 7.0 | 0.00 | 0.00 | 0.00 | 83 | 997.2 |
| 20260905162112 | 60 | 186 | 2.0 | 7.0 | 0.00 | 0.00 | 0.00 | 85 | 997.2 |
| 20260905161609 | 60 | 190 | 2.0 | 5.0 | 0.00 | 0.00 | 0.00 | 85 | 997.2 |
| 20260905161106 | 60 | 169 | 2.0 | 5.0 | 0.00 | 0.00 | 0.00 | 86 | 997.2 |
| 20260905160607 | 59 | 175 | 2.0 | 9.0 | 0.00 | 0.00 | 0.00 | 87 | 997.2 |
| 20260905160107 | 59 | 198 | 3.0 | 9.0 | 0.00 | 0.00 | 0.00 | 87 | 997.3 |
| 20260905155608 | 59 | 157 | 3.0 | 6.0 | 0.00 | 0.00 | 0.00 | 88 | 997.3 |
| 20260905155105 | 59 | 155 | 3.0 | 8.0 | 0.00 | 0.00 | 0.00 | 88 | 997.3 |
| 20260905154606 | 58 | 153 | 3.0 | 8.0 | 0.00 | 0.00 | 0.00 | 89 | 997.3 |
| 20260905154106 | 58 | 197 | 3.0 | 7.0 | 0.00 | 0.00 | 0.00 | 89 | 997.4 |
| 20260905153105 | 58 | 146 | 3.0 | 8.0 | 0.00 | 0.00 | 0.00 | 90 | 997.3 |
| 20260905152105 | 58 | 183 | 3.0 | 6.0 | 0.00 | 0.00 | 0.00 | 90 | 997.3 |
| 20260905151606 | 58 | 196 | 3.0 | 8.0 | 0.00 | 0.00 | 0.00 | 90 | 997.2 |
| 20260905151102 | 57 | 172 | 2.0 | 8.0 | 0.00 | 0.00 | 0.00 | 91 | 997.2 |
| 20260905150601 | 57 | 194 | 2.0 | 6.0 | 0.00 | 0.00 | 0.00 | 91 | 997.3 |
| 20260905145600 | 57 | 194 | 2.0 | 5.0 | 0.00 | 0.00 | 0.00 | 91 | 997.2 |
| 20260905145100 | 57 | 192 | 1.0 | 5.0 | 0.00 | 0.00 | 0.00 | 91 | 997.2 |
| 20260905144601 | 57 | 176 | 1.0 | 4.0 | 0.00 | 0.00 | 0.00 | 91 | 997.1 |
| 20260905144100 | 56 | 183 | 1.0 | 4.0 | 0.00 | 0.00 | 0.00 | 90 | 997.1 |
| 20260905143601 | 56 | 146 | 1.0 | 3.0 | 0.00 | 0.00 | 0.00 | 90 | 997.0 |
| 20260905143102 | 56 | 151 | 0.0 | 1.0 | 0.00 | 0.00 | 0.00 | 90 | 997.1 |
| 20260905142558 | 56 | 151 | 0.0 | 5.0 | 0.00 | 0.00 | 0.00 | 90 | 997.0 |
| 20260905142056 | 56 | 149 | 0.0 | 5.0 | 0.00 | 0.00 | 0.00 | 90 | 996.9 |
| 20260905141057 | 56 | 158 | 0.0 | 1.0 | 0.00 | 0.00 | 0.00 | 90 | 996.9 |
| 20260905140557 | 56 | 157 | 0.0 | 1.0 | 0.00 | 0.00 | 0.00 | 90 | 996.8 |
| 20260905140057 | 56 | 157 | 0.0 | 1.0 | 0.00 | 0.00 | 0.00 | 90 | 996.8 |
| 20260905135558 | 56 | 157 | 0.0 | 1.0 | 0.00 | 0.00 | 0.00 | 90 | 996.8 |
| 20260905135057 | 56 | 157 | 0.0 | 1.0 | 0.00 | 0.00 | 0.00 | 90 | 996.7 |
| 20260905134557 | 56 | 157 | 0.0 | 1.0 | 0.00 | 0.00 | 0.00 | 90 | 996.7 |
| 20260905134056 | 56 | 157 | 0.0 | 2.0 | 0.00 | 0.00 | 0.00 | 90 | 996.7 |
| 20260905133558 | 56 | 157 | 0.0 | 2.0 | 0.00 | 0.00 | 0.00 | 90 | 996.7 |
| 20260905132556 | 56 | 157 | 0.0 | 2.0 | 0.00 | 0.00 | 0.00 | 90 | 996.7 |
| 20260905132058 | 56 | 158 | 0.0 | 2.0 | 0.00 | 0.00 | 0.00 | 90 | 996.7 |
| 20260905131558 | 56 | 157 | 0.0 | 3.0 | 0.00 | 0.00 | 0.00 | 90 | 996.7 |
| 20260905131057 | 56 | 157 | 0.0 | 3.0 | 0.00 | 0.00 | 0.00 | 90 | 996.7 |
| 20260905130055 | 56 | 166 | 0.0 | 0.0 | 0.00 | 0.00 | 0.00 | 90 | 996.7 |
| 20260905125601 | 56 | 165 | 0.0 | 0.0 | 0.00 | 0.00 | 0.00 | 89 | 996.7 |
| 20260905125043 | 56 | 165 | 0.0 | 0.0 | 0.00 | 0.00 | 0.00 | 89 | 996.7 |
| 20260905124537 | 56 | 167 | 0.0 | 0.0 | 0.00 | 0.00 | 0.00 | 89 | 996.9 |
| 20260905123525 | 56 | 175 | 0.0 | 0.0 | 0.00 | 0.00 | 0.00 | 89 | 996.9 |
| 20260905123019 | 56 | 175 | 0.0 | 0.0 | 0.00 | 0.00 | 0.00 | 89 | 996.9 |
| 20260905122513 | 56 | 175 | 0.0 | 0.0 | 0.00 | 0.00 | 0.00 | 89 | 996.8 |
| 20260905121501 | 56 | 175 | 0.0 | 0.0 | 0.00 | 0.00 | 0.00 | 89 | 996.8 |
| 20260905120955 | 56 | 179 | 0.0 | 0.0 | 0.00 | 0.00 | 0.00 | 89 | 996.8 |
| 20260905115948 | 56 | 158 | 0.0 | 0.0 | 0.00 | 0.00 | 0.00 | 89 | 996.9 |
| 20260905115433 | 56 | 157 | 0.0 | 0.0 | 0.00 | 0.00 | 0.00 | 89 | 996.9 |
| 20260905114927 | 56 | 181 | 0.0 | 0.0 | 0.00 | 0.00 | 0.00 | 89 | 996.9 |
| 20260905114420 | 56 | 190 | 0.0 | 0.0 | 0.00 | 0.00 | 0.00 | 89 | 996.7 |
| 20260905113915 | 56 | 190 | 0.0 | 0.0 | 0.00 | 0.00 | 0.00 | 89 | 996.9 |
| 20260905113409 | 56 | 190 | 0.0 | 0.0 | 0.00 | 0.00 | 0.00 | 89 | 996.8 |
| 20260905112357 | 56 | 190 | 0.0 | 0.0 | 0.00 | 0.00 | 0.00 | 89 | 996.9 |
| 20260905111850 | 56 | 190 | 0.0 | 0.0 | 0.00 | 0.00 | 0.00 | 89 | 996.9 |
| 20260905111344 | 56 | 190 | 0.0 | 0.0 | 0.00 | 0.00 | 0.00 | 88 | 996.9 |
| 20260905110332 | 56 | 190 | 0.0 | 0.0 | 0.00 | 0.00 | 0.00 | 88 | 996.9 |
| 20260905104815 | 57 | 190 | 0.0 | 0.0 | 0.00 | 0.00 | 0.00 | 88 | 996.9 |
| 20260905104309 | 57 | 190 | 0.0 | 0.0 | 0.00 | 0.00 | 0.00 | 88 | 996.9 |
| 20260905103803 | 57 | 191 | 0.0 | 0.0 | 0.00 | 0.00 | 0.00 | 88 | 996.9 |
| 20260905103257 | 57 | 191 | 0.0 | 0.0 | 0.00 | 0.00 | 0.00 | 88 | 996.9 |
| 20260905102751 | 57 | 191 | 0.0 | 0.0 | 0.00 | 0.00 | 0.00 | 88 | 997.0 |
| 20260905102244 | 57 | 193 | 0.0 | 0.0 | 0.00 | 0.00 | 0.00 | 88 | 997.0 |
| 20260905101739 | 57 | 194 | 0.0 | 0.0 | 0.00 | 0.00 | 0.00 | 88 | 997.1 |
| 20260905101233 | 57 | 167 | 0.0 | 0.0 | 0.00 | 0.00 | 0.00 | 87 | 997.0 |
| 20260905100727 | 57 | 155 | 0.0 | 0.0 | 0.00 | 0.00 | 0.00 | 87 | 997.0 |
| 20260905100221 | 57 | 155 | 0.0 | 0.0 | 0.00 | 0.00 | 0.00 | 87 | 997.1 |
| 20260905095715 | 57 | 155 | 0.0 | 0.0 | 0.00 | 0.00 | 0.00 | 87 | 997.0 |
| 20260905094702 | 57 | 155 | 0.0 | 0.0 | 0.00 | 0.00 | 0.00 | 87 | 997.0 |
| 20260905094157 | 57 | 156 | 0.0 | 0.0 | 0.00 | 0.00 | 0.00 | 86 | 997.0 |
| 20260905093651 | 57 | 156 | 0.0 | 0.0 | 0.00 | 0.00 | 0.00 | 86 | 997.1 |
| 20260905093145 | 57 | 156 | 0.0 | 0.0 | 0.00 | 0.00 | 0.00 | 86 | 997.1 |
| 20260905092640 | 57 | 157 | 0.0 | 0.0 | 0.00 | 0.00 | 0.00 | 86 | 997.2 |
| 20260905092133 | 57 | 158 | 0.0 | 0.0 | 0.00 | 0.00 | 0.00 | 86 | 997.2 |
| 20260905091627 | 57 | 158 | 0.0 | 0.0 | 0.00 | 0.00 | 0.00 | 86 | 997.2 |
| 20260905091121 | 57 | 158 | 0.0 | 0.0 | 0.00 | 0.00 | 0.00 | 85 | 997.2 |
| 20260905090615 | 57 | 158 | 0.0 | 0.0 | 0.00 | 0.00 | 0.00 | 85 | 997.3 |
| 20260905090109 | 57 | 158 | 0.0 | 1.0 | 0.00 | 0.00 | 0.00 | 85 | 997.3 |
| 20260905085057 | 57 | 51 | 0.0 | 0.0 | 0.00 | 0.00 | 0.00 | 85 | 997.4 |
| 20260905084550 | 57 | 51 | 0.0 | 0.0 | 0.00 | 0.00 | 0.00 | 85 | 997.4 |
| 20260905084045 | 57 | 51 | 0.0 | 0.0 | 0.00 | 0.00 | 0.00 | 85 | 997.3 |
| 20260905082527 | 57 | 51 | 0.0 | 0.0 | 0.00 | 0.00 | 0.00 | 86 | 997.3 |
| 20260905082021 | 57 | 51 | 0.0 | 0.0 | 0.00 | 0.00 | 0.00 | 86 | 997.3 |
| 20260905081515 | 57 | 51 | 0.0 | 0.0 | 0.00 | 0.00 | 0.00 | 86 | 997.3 |
| 20260905081008 | 57 | 51 | 0.0 | 0.0 | 0.00 | 0.00 | 0.00 | 86 | 997.3 |
| 20260905080502 | 57 | 51 | 0.0 | 0.0 | 0.00 | 0.00 | 0.00 | 86 | 997.3 |
| 20260905075956 | 57 | 51 | 0.0 | 0.0 | 0.00 | 0.00 | 0.00 | 86 | 997.3 |
| 20260905074945 | 56 | 51 | 0.0 | 0.0 | 0.00 | 0.00 | 0.00 | 85 | 997.2 |
| 20260905074439 | 56 | 51 | 0.0 | 0.0 | 0.00 | 0.00 | 0.00 | 85 | 997.2 |
| 20260905073932 | 56 | 51 | 0.0 | 0.0 | 0.00 | 0.00 | 0.00 | 85 | 997.2 |
| 20260905073427 | 57 | 51 | 0.0 | 0.0 | 0.00 | 0.00 | 0.00 | 85 | 997.1 |
| 20260905072921 | 57 | 51 | 0.0 | 0.0 | 0.00 | 0.00 | 0.00 | 85 | 997.0 |
| 20260905072415 | 57 | 51 | 0.0 | 0.0 | 0.00 | 0.00 | 0.00 | 85 | 997.0 |
| 20260905071909 | 57 | 51 | 0.0 | 0.0 | 0.00 | 0.00 | 0.00 | 85 | 997.1 |
| 20260905070857 | 57 | 51 | 0.0 | 0.0 | 0.00 | 0.00 | 0.00 | 85 | 997.0 |
| 20260905065845 | 57 | 51 | 0.0 | 0.0 | 0.00 | 0.00 | 0.00 | 85 | 997.1 |
| 20260905065339 | 57 | 51 | 0.0 | 0.0 | 0.00 | 0.00 | 0.00 | 85 | 997.1 |
| 20260905064833 | 57 | 51 | 0.0 | 0.0 | 0.00 | 0.00 | 0.00 | 85 | 997.0 |
| 20260905064327 | 57 | 51 | 0.0 | 0.0 | 0.00 | 0.00 | 0.00 | 84 | 997.1 |
| 20260905063822 | 57 | 51 | 0.0 | 0.0 | 0.00 | 0.00 | 0.00 | 84 | 997.1 |
| 20260905062809 | 57 | 51 | 0.0 | 0.0 | 0.00 | 0.00 | 0.00 | 84 | 997.0 |
| 20260905062305 | 57 | 51 | 0.0 | 0.0 | 0.00 | 0.00 | 0.00 | 83 | 997.0 |
| 20260905061757 | 57 | 51 | 0.0 | 0.0 | 0.00 | 0.00 | 0.00 | 83 | 997.1 |
| 20260905061251 | 57 | 51 | 0.0 | 0.0 | 0.00 | 0.00 | 0.00 | 83 | 997.1 |
| 20260905060238 | 57 | 51 | 0.0 | 0.0 | 0.00 | 0.00 | 0.00 | 83 | 997.1 |
| 20260905055733 | 58 | 51 | 0.0 | 0.0 | 0.00 | 0.00 | 0.00 | 82 | 997.2 |
| 20260905055227 | 58 | 5 | 0.0 | 0.0 | 0.00 | 0.00 | 0.00 | 82 | 997.2 |
| 20260905053709 | 58 | 5 | 0.0 | 0.0 | 0.00 | 0.00 | 0.00 | 81 | 997.2 |
| 20260905052706 | 58 | 11 | 0.0 | 0.0 | 0.00 | 0.00 | 0.00 | 80 | 997.2 |
| 20260905052205 | 58 | 11 | 0.0 | 0.0 | 0.00 | 0.00 | 0.00 | 80 | 997.3 |
| 20260905051707 | 58 | 11 | 0.0 | 0.0 | 0.00 | 0.00 | 0.00 | 80 | 997.4 |
| 20260905051203 | 59 | 11 | 0.0 | 0.0 | 0.00 | 0.00 | 0.00 | 80 | 997.3 |
| 20260905050201 | 59 | 11 | 0.0 | 0.0 | 0.00 | 0.00 | 0.00 | 79 | 997.4 |
| 20260905045702 | 60 | 11 | 0.0 | 0.0 | 0.00 | 0.00 | 0.00 | 78 | 997.4 |
| 20260905045200 | 60 | 11 | 0.0 | 0.0 | 0.00 | 0.00 | 0.00 | 78 | 997.3 |
| 20260905044659 | 60 | 11 | 0.0 | 0.0 | 0.00 | 0.00 | 0.00 | 78 | 997.3 |
| 20260905044200 | 60 | 11 | 0.0 | 0.0 | 0.00 | 0.00 | 0.00 | 77 | 997.4 |
| 20260905043659 | 60 | 11 | 0.0 | 0.0 | 0.00 | 0.00 | 0.00 | 77 | 997.4 |
| 20260905043155 | 61 | 11 | 0.0 | 0.0 | 0.00 | 0.00 | 0.00 | 77 | 997.3 |
| 20260905042656 | 61 | 0 | 0.0 | 0.0 | 0.00 | 0.00 | 0.00 | 76 | 997.2 |
| 20260905042157 | 61 | 5 | 0.0 | 0.0 | 0.00 | 0.00 | 0.00 | 75 | 997.2 |
| 20260905041655 | 61 | 344 | 0.0 | 0.0 | 0.00 | 0.00 | 0.00 | 75 | 997.2 |
| 20260905041155 | 61 | 344 | 0.0 | 0.0 | 0.00 | 0.00 | 0.00 | 75 | 997.2 |
| 20260905040652 | 61 | 344 | 0.0 | 2.0 | 0.00 | 0.00 | 0.00 | 74 | 997.3 |
| 20260905040152 | 62 | 344 | 0.0 | 2.0 | 0.00 | 0.00 | 0.00 | 73 | 997.2 |
| 20260905035654 | 62 | 343 | 0.0 | 3.0 | 0.00 | 0.00 | 0.00 | 73 | 997.1 |
| 20260905035152 | 62 | 342 | 1.0 | 4.0 | 0.00 | 0.00 | 0.00 | 73 | 997.0 |
| 20260905034152 | 62 | 344 | 2.0 | 5.0 | 0.00 | 0.00 | 0.00 | 72 | 997.1 |
| 20260905033653 | 62 | 336 | 2.0 | 5.0 | 0.00 | 0.00 | 0.00 | 72 | 997.0 |
| 20260905033153 | 62 | 331 | 1.0 | 4.0 | 0.00 | 0.00 | 0.00 | 72 | 996.9 |
| 20260905032147 | 62 | 232 | 1.0 | 5.0 | 0.00 | 0.00 | 0.00 | 71 | 997.0 |
| 20260905031149 | 63 | 324 | 1.0 | 6.0 | 0.00 | 0.00 | 0.00 | 71 | 996.9 |
| 20260905030648 | 63 | 346 | 1.0 | 4.0 | 0.00 | 0.00 | 0.00 | 70 | 997.0 |
| 20260905030147 | 63 | 351 | 1.0 | 4.0 | 0.00 | 0.00 | 0.00 | 70 | 996.9 |
| 20260905025647 | 63 | 341 | 1.0 | 8.0 | 0.00 | 0.00 | 0.00 | 70 | 996.9 |
| 20260905025147 | 63 | 311 | 2.0 | 8.0 | 0.00 | 0.00 | 0.00 | 70 | 996.8 |
| 20260905024649 | 64 | 328 | 1.0 | 6.0 | 0.00 | 0.00 | 0.00 | 72 | 996.7 |
| 20260905024149 | 64 | 12 | 0.0 | 2.0 | 0.00 | 0.00 | 0.00 | 75 | 996.8 |
| 20260905023649 | 64 | 173 | 1.0 | 3.0 | 0.00 | 0.01 | 0.00 | 76 | 996.7 |
| 20260905023147 | 64 | 173 | 1.0 | 3.0 | 0.00 | 0.01 | 0.00 | 75 | 996.6 |
| 20260905022649 | 65 | 195 | 1.0 | 4.0 | 0.00 | 0.01 | 0.00 | 75 | 996.5 |
| 20260905022148 | 65 | 198 | 2.0 | 5.0 | 0.00 | 0.01 | 0.00 | 75 | 996.6 |
| 20260905021648 | 65 | 184 | 2.0 | 5.0 | 0.00 | 0.01 | 0.00 | 75 | 996.6 |
| 20260905021148 | 65 | 170 | 1.0 | 5.0 | 0.00 | 0.01 | 0.00 | 74 | 996.5 |
| 20260905020149 | 66 | 182 | 2.0 | 5.0 | 0.00 | 0.01 | 0.00 | 73 | 996.5 |
| 20260905015647 | 66 | 173 | 3.0 | 6.0 | 0.00 | 0.01 | 0.00 | 73 | 996.5 |
| 20260905014645 | 66 | 196 | 3.0 | 6.0 | 0.00 | 0.01 | 0.00 | 72 | 996.6 |
| 20260905014144 | 67 | 180 | 2.0 | 6.0 | 0.00 | 0.01 | 0.00 | 72 | 996.7 |
| 20260905013645 | 67 | 189 | 3.0 | 6.0 | 0.00 | 0.01 | 0.00 | 73 | 996.6 |
| 20260905013144 | 67 | 212 | 3.0 | 6.0 | 0.00 | 0.01 | 0.00 | 72 | 996.7 |
| 20260905012143 | 67 | 175 | 3.0 | 8.0 | 0.00 | 0.01 | 0.00 | 71 | 996.6 |
| 20260905011641 | 67 | 173 | 3.0 | 8.0 | 0.00 | 0.01 | 0.00 | 70 | 996.7 |
| 20260905011141 | 68 | 178 | 3.0 | 7.0 | 0.00 | 0.01 | 0.00 | 69 | 996.8 |
| 20260905010140 | 68 | 234 | 3.0 | 11.0 | 0.00 | 0.01 | 0.00 | 68 | 996.7 |
| 20260905005639 | 68 | 177 | 3.0 | 11.0 | 0.00 | 0.01 | 0.00 | 68 | 996.7 |
| 20260905005141 | 68 | 174 | 3.0 | 7.0 | 0.00 | 0.01 | 0.00 | 68 | 996.6 |
| 20260905004640 | 68 | 219 | 4.0 | 7.0 | 0.00 | 0.01 | 0.00 | 68 | 996.7 |
| 20260905004140 | 68 | 192 | 3.0 | 7.0 | 0.00 | 0.01 | 0.00 | 68 | 996.7 |
| 20260905003126 | 68 | 225 | 4.0 | 10.0 | 0.00 | 0.01 | 0.00 | 68 | 996.6 |
| 20260905002620 | 68 | 210 | 4.0 | 10.0 | 0.00 | 0.01 | 0.00 | 69 | 996.6 |
| 20260905002114 | 69 | 219 | 4.0 | 9.0 | 0.00 | 0.01 | 0.00 | 69 | 996.6 |
| 20260905001607 | 68 | 171 | 4.0 | 9.0 | 0.00 | 0.01 | 0.00 | 70 | 996.5 |
| 20260905001102 | 69 | 235 | 4.0 | 9.0 | 0.00 | 0.01 | 0.00 | 68 | 996.5 |
| 20260905000556 | 68 | 226 | 3.0 | 8.0 | 0.00 | 0.01 | 0.00 | 71 | 996.6 |
| 20260905000050 | 68 | 211 | 3.0 | 8.0 | 0.00 | 0.01 | 0.00 | 72 | 996.5 |
| 20260904235544 | 68 | 248 | 3.0 | 8.0 | 0.00 | 0.01 | 0.00 | 71 | 996.5 |
| 20260904235037 | 68 | 225 | 4.0 | 8.0 | 0.00 | 0.01 | 0.00 | 71 | 996.6 |
| 20260904234532 | 68 | 229 | 4.0 | 11.0 | 0.00 | 0.01 | 0.00 | 71 | 996.7 |
| 20260904234026 | 68 | 206 | 4.0 | 11.0 | 0.00 | 0.01 | 0.00 | 70 | 996.7 |
| 20260904233521 | 68 | 219 | 5.0 | 9.0 | 0.00 | 0.01 | 0.00 | 70 | 996.8 |
| 20260904233014 | 68 | 252 | 5.0 | 10.0 | 0.00 | 0.01 | 0.00 | 70 | 996.8 |
| 20260904232507 | 68 | 272 | 4.0 | 10.0 | 0.00 | 0.01 | 0.00 | 70 | 996.8 |
| 20260904230950 | 68 | 245 | 4.0 | 10.0 | 0.00 | 0.01 | 0.00 | 72 | 996.9 |
| 20260904230444 | 67 | 254 | 4.0 | 9.0 | 0.00 | 0.01 | 0.00 | 72 | 996.9 |
| 20260904225938 | 67 | 196 | 5.0 | 11.0 | 0.00 | 0.01 | 0.00 | 73 | 996.9 |
| 20260904225432 | 67 | 249 | 5.0 | 10.0 | 0.00 | 0.01 | 0.00 | 73 | 996.9 |
| 20260904224926 | 67 | 295 | 6.0 | 10.0 | 0.00 | 0.01 | 0.00 | 72 | 997.0 |
| 20260904224420 | 68 | 225 | 5.0 | 11.0 | 0.00 | 0.01 | 0.00 | 71 | 997.0 |
| 20260904223913 | 68 | 220 | 5.0 | 11.0 | 0.00 | 0.01 | 0.00 | 71 | 997.0 |
| 20260904223408 | 68 | 248 | 5.0 | 10.0 | 0.00 | 0.01 | 0.00 | 70 | 997.1 |
| 20260904222902 | 69 | 252 | 4.0 | 9.0 | 0.00 | 0.01 | 0.00 | 70 | 997.2 |